GSAT 30

导读

GSAT 30是印度空间研究组织研制的高通量通信卫星,于北京时间2020年1月16日发射升空。卫星定位于地球静止轨道,主要为印度及周边区域提供增强通信广播服务,覆盖印度洋区域,助力改善偏远地区网络连接,补充接替老旧卫星,支撑印度民用通信与战略基础设施服务,是印度空间通信组网的重要节点。

基本信息
目录编号:
45026
目录名称:
GSAT 30
国际标识:
2020-005A
轨道中心:
EARTH
卫星名称:
GSAT 30
卫星全名:
--
卫星状态:
在轨 (已飞行2348 天)
发射日期:
2020-01-16 UTC
国别 :
印度 (IN)
星等 :
--
轨道信息
数据来源 国际轨道数据 AOE轨道数据
星历时间 2026-06-20T17:48:14+0800
1天前
查看轨道信息
2026-06-17T06:00:00+0800
4天前
查看轨道信息
半长轴 42164.392km 42164.868km
偏心率 0.0003454 0.000332
轨道倾角 0.023° 0.073°
近地点辐角 176.595° 348.226°
升交点赤经 262.096° 95.550°
平近点角 59.980° 234.389°
近地点 35771.691km 35772.732km
远地点 35800.819km 35800.73km
周期 1436.080分钟 1436.104分钟
每日圈数 1.00273 1.002713
详细信息
使用方式:
暂无
2D轨道图
3D轨道图
轨道高度分析图
轨道倾角分析图
轨道综合分析图
查看轨道综合分析图